Location: Chuignolles
(49.9022°N, 2.7284°E)
Time: 23:45:38
(UTC+00:00)

Daily predictions for brighter satellites

Satellite Brightness Start Highest point End
(mag) Time Altitude Azimuth Time Altitude Azimuth Time Altitude Azimuth
Cosmos 1844 3.8 20:37:46 10° NNW 20:43:22 78° ENE 20:48:58 10° SSE
FALCON 9 DEB 3.2 20:41:19 10° SW 20:44:40 54° SSE 20:48:01 10° ENE
Cosmos 405 4.0 20:47:24 10° N 20:50:32 30° ENE 20:53:36 10° SE
ATLAS 3B R/B 3.1 20:48:12 10° S 20:54:07 37° ESE 21:00:12 10° NE
SL-14 R/B 4.3 20:51:11 10° SSE 20:54:43 30° E 20:58:16 10° NNE
NOSS 3-2 (C) 4.1 20:49:26 10° WSW 20:55:11 61° NW 21:01:54 10° NE
Cosmos 1953 2.4 20:51:46 10° NNW 20:55:51 84° W 20:59:55 10° S
Cosmos 1452 Rocket 3.8 20:50:45 10° SSW 20:56:01 74° WNW 21:01:20 10° NNE
KORONAS-FOTON 3.7 20:54:30 10° S 20:58:17 85° E 21:02:05 10° N
Cosmos 2360 Rocket 2.2 20:57:31 10° SSW 21:03:09 78° ESE 21:08:48 10° NNE
SL-16 R/B 3.1 21:00:29 10° SW 21:06:01 54° NW 21:11:37 10° NNE
Cosmos 1674 2.8 21:02:46 10° SSW 21:06:28 77° W 21:10:12 10° N
Cosmos 2322 Rocket 2.8 21:00:57 10° SW 21:06:37 65° WNW 21:12:20 10° NNE
Cosmos 2061 Rocket 4.2 21:00:24 10° N 21:06:50 65° ENE 21:13:10 10° SSE
Geosat 4.0 21:02:23 10° SE 21:07:25 84° ENE 21:12:29 10° NNW
ERS-1 Rocket 3.1 21:04:27 10° SSE 21:09:28 72° ENE 21:14:31 10° N
Spot 2 Rocket 3.6 21:06:31 10° SSE 21:11:34 78° WSW 21:16:42 10° NNW
Cosmos 2123 Rocket 4.2 21:05:50 10° SSE 21:11:57 56° E 21:18:08 10° NNE
Cosmos 1331 Rocket 4.0 21:10:02 10° SSW 21:15:16 79° ESE 21:20:36 10° NNE
Cosmos 2233 Rocket 4.5 21:09:49 10° N 21:15:45 47° ENE 21:21:17 12° SE
Cosmos 1544 Rocket 3.7 21:13:15 10° NNW 21:17:44 80° W 21:22:10 10° S
SPOT 1/Viking Rocket 4.3 21:13:17 10° S 21:18:15 50° W 21:23:17 10° NNW
USA 215 4.4 21:14:29 10° E 21:19:00 19° ESE 21:23:30 10° SSE
Cosmos 1300 3.0 21:15:24 10° N 21:19:09 54° ENE 21:22:22 13° SSE
ARIANE 5 R/B 2.9 21:15:43 10° S 21:20:10 71° WSW 21:24:41 10° NNW
Cosmos 2100 Rocket 4.4 21:15:24 10° NNW 21:21:42 65° W 21:27:55 10° S
Cosmos 1455 Rocket 4.0 21:17:56 10° NNW 21:22:13 45° W 21:26:27 10° SSW
BREEZE-M DEB (TANK) 2.9 21:23:08 10° SW 21:25:44 55° SSE 21:31:47 10° ENE
FALCON 9 DEB 3.6 21:24:25 10° SSW 21:27:15 32° SE 21:30:05 10° E
Cosmos 2322 3.8 21:22:49 10° S 21:28:21 60° ESE 21:33:56 10° NE
COSMOS 2428 3.1 21:23:34 10° S 21:28:57 44° ESE 21:34:22 10° NE
Cosmos 2278 Rocket 3.0 21:24:36 10° NNW 21:30:03 45° NE 21:35:15 11° SE
Cosmos 1340 2.6 21:27:34 10° S 21:31:20 75° E 21:35:06 10° NNE
CENTAUR R/B 4.1 21:25:42 10° W 21:31:45 43° NNW 21:38:56 10° NE
Cosmos 1844 Rocket 3.7 21:28:22 10° NW 21:33:38 41° WSW 21:38:54 10° S
BREEZE-M DEB (TANK) 3.6 21:32:53 10° W 21:35:23 20° SW 21:36:29 15° S
Cosmos 1302 Rocket 4.1 21:30:38 10° S 21:35:49 63° ESE 21:41:01 10° NNE
OPS 8737 4.3 21:32:00 10° SW 21:35:53 77° SE 21:38:58 10° NE
ATLAS CENTAUR R/B 4.4 21:37:08 12° SE 21:39:55 16° E 21:45:12 10° ENE
Cosmos 2016 Rocket 4.1 21:33:56 10° NNW 21:40:01 73° W 21:46:05 10° S
Terra 1.9 21:36:58 13° SSE 21:41:08 85° WSW 21:45:56 10° NNW
SPOT 5 3.3 21:39:06 11° S 21:43:59 60° W 21:48:48 10° NNW
FALCON 9 DEB 2.9 21:41:23 10° SW 21:44:25 54° SSE 21:47:28 10° ENE
ATLAS CENTAUR R/B 2.3 21:45:02 10° NW 21:49:07 41° WSW 21:52:25 16° S
Cosmos 1607 4.4 21:43:13 10° NW 21:49:37 60° NE 21:55:32 12° ESE
FALCON 9 DEB 3.0 21:48:01 10° SW 21:51:02 49° SSE 21:54:04 10° ENE
Cosmos 1536 Rocket 3.7 21:48:42 10° SSW 21:53:10 81° W 21:57:38 10° N
Cosmos 1725 Rocket 4.2 21:47:33 10° NNW 21:53:42 68° W 21:59:29 12° S
Cosmos 1025 Rocket 4.1 21:49:52 10° SSW 21:54:04 45° WNW 21:58:16 10° N
FALCON 9 DEB 2.8 21:51:32 10° SW 21:54:36 61° SSE 21:57:41 10° ENE
USA 267 3.8 21:48:36 10° E 21:55:00 59° NNE 22:01:25 10° WNW
Cosmos 389 Rocket 2.7 21:52:08 10° N 21:55:30 53° ENE 21:57:31 22° SE
Cosmos 1867 3.6 21:50:05 10° NW 21:55:37 85° SW 21:59:50 17° SE
Cosmos 1626 3.6 21:54:14 10° SW 21:57:38 35° WNW 22:01:04 10° N
Cosmos 1346 Rocket 3.2 21:55:09 19° SSE 21:57:43 46° E 22:01:36 10° NNE
Cosmos 2228 3.2 21:54:17 10° N 21:58:41 67° ENE 22:01:42 20° SSE
Cosmos 1943 Rocket 4.1 21:55:45 10° N 21:59:57 21° NE 22:04:07 10° E
Meteor 2-10 Rocket 3.4 21:57:54 10° N 22:03:01 82° ENE 22:06:40 19° SSE
SL-4 R/B 2.9 22:04:17 17° S 22:06:19 25° SE 22:09:31 10° E
Cosmos 968 Rocket 3.7 22:04:44 10° NNW 22:09:47 61° WSW 22:13:27 18° S
Cosmos 1980 4.4 22:06:14 18° SSE 22:09:51 37° ESE 22:15:02 10° NE
Cosmos 1486 Rocket 4.0 22:05:31 10° NNW 22:10:45 78° WSW 22:14:24 20° SSE
Meteor 2-5 Rocket 3.9 22:07:24 10° SSW 22:12:55 73° WNW 22:18:35 10° N
Lacrosse 5 rocket 1.8 22:11:05 10° WSW 22:14:39 54° NNW 22:18:11 10° NE
Cosmos 2333 Rocket 2.7 22:15:09 10° SW 22:20:51 63° WNW 22:26:33 10° NNE
Cosmos 1992 Rocket 4.0 22:16:46 16° S 22:20:55 65° ESE 22:26:07 10° NNE
FALCON 9 DEB 3.9 22:18:13 10° W 22:21:36 54° N 22:24:58 10° ENE
Cosmos 2219 Rocket 2.5 22:17:39 10° SW 22:23:19 68° WNW 22:29:00 10° NNE
H-2A R/B 4.0 22:21:51 10° N 22:25:52 56° WNW 22:29:36 12° SSW
Cosmos 1354 Rocket 4.1 22:20:51 10° NNW 22:26:14 76° ENE 22:29:48 21° SSE
Iridium 2 3.6 22:30:01 27° S 22:31:55 70° E 22:35:39 10° N
Okean 1-7 Rocket 4.4 22:32:54 23° SE 22:35:03 37° E 22:39:09 10° NNE
Spot 4 3.9 22:33:32 23° SSE 22:36:29 74° ENE 22:41:16 10° N
Cosmos 2034 Rocket 4.4 22:33:27 10° N 22:39:32 53° ENE 22:43:40 20° SE
SL-16 R/B 3.6 22:38:05 18° SE 22:40:21 23° ESE 22:44:42 10° NE
Cosmos 2237 Rocket 2.3 22:38:58 20° S 22:42:51 60° ESE 22:48:24 10° NE
Cosmos 2058 Rocket 3.1 22:38:30 10° N 22:42:59 76° E 22:45:21 27° SSE
ATLAS 3B R/B 3.2 22:38:00 10° WSW 22:44:31 62° NW 22:51:19 10° NE
Cosmos 1455 2.2 22:41:12 10° NNW 22:45:03 78° W 22:46:51 30° S
Cosmos 1726 Rocket 3.8 22:40:37 10° NNW 22:45:04 66° W 22:47:36 24° S
Cosmos 2360 Rocket 4.4 22:43:09 10° W 22:47:47 25° NW 22:52:26 10° NNE
Meteor 1-24 Rocket 4.5 22:43:44 10° SW 22:48:54 47° WNW 22:54:14 10° N
Cosmos 2369 Rocket 4.0 22:45:32 10° NNW 22:50:19 26° NE 22:55:05 10° E
NOSS 0 Rocket 3.9 22:46:59 12° SSW 22:52:47 87° ESE 22:59:04 10° NNE
SJ 16-02 2.4 22:56:03 10° N 23:00:09 37° ENE 23:03:04 17° ESE
GP-B 4.4 22:58:20 10° NNE 23:02:13 28° E 23:04:24 19° SE
FALCON 9 DEB 3.3 22:59:42 10° W 23:02:50 64° NNW 23:05:57 10° ENE
USA 215 3.2 22:56:26 10° ENE 23:02:56 62° SE 23:09:24 10° SW
GEOS 3 Rocket 3.8 23:02:54 25° SSE 23:06:01 60° SW 23:11:18 10° NW
Cosmos 1892 Rocket 3.8 23:03:57 22° SSW 23:06:40 65° WNW 23:11:07 10° N
Tsikada Rocket 4.4 23:06:39 23° SSE 23:10:18 50° E 23:16:14 10° NNE
COBE Rocket 4.0 23:09:26 27° S 23:12:14 74° WSW 23:17:10 10° NNW
COSMOS 2428 4.0 23:07:56 10° WSW 23:13:19 40° NW 23:18:44 10° NNE
Cosmos 2278 Rocket 3.1 23:08:54 10° NW 23:14:04 37° WSW 23:17:05 22° SSW
Cosmos 2297 3.9 23:09:57 10° NNW 23:15:36 69° ENE 23:19:34 20° SE
Aureole 3 4.5 23:12:45 10° N 23:16:15 36° ENE 23:18:37 21° SE
ALOS 2 2.6 23:14:25 30° S 23:16:32 80° WSW 23:20:58 10° NNW
Terra 4.2 23:17:49 10° WSW 23:19:39 12° W 23:21:28 10° WNW
Cosmos 1184 Rocket 3.5 23:18:24 28° SW 23:19:46 48° WNW 23:22:56 10° N
FALCON 9 DEB 3.8 23:17:02 10° W 23:20:05 50° N 23:23:07 10° ENE
USA 32 4.2 23:17:59 10° N 23:23:14 66° E 23:26:11 26° SSE
Meteor 1-21 Rocket 4.3 23:20:47 23° SSW 23:24:28 78° WNW 23:30:16 10° N
FALCON 9 DEB 3.7 23:23:41 10° W 23:26:45 52° N 23:29:49 10° ENE
FALCON 9 DEB 3.9 23:27:17 10° W 23:30:19 48° N 23:33:21 10° ENE
SAR-Lupe-2 3.6 23:29:55 10° NNE 23:33:30 63° ESE 23:34:38 39° SSE
Lacrosse 4 Rocket 4.3 23:32:20 10° N 23:34:27 14° NNE 23:36:33 10° ENE
Cosmos 1626 Rocket 3.5 23:32:56 31° S 23:35:04 89° ESE 23:39:32 10° N
USA 267 3.2 23:32:01 13° SE 23:37:58 71° SW 23:44:31 10° WNW
Thor Agena Rocket 3.9 23:33:47 10° NNE 23:38:57 54° E 23:41:35 27° SSE
BREEZE-M DEB (TANK) 3.1 23:36:24 10° W 23:40:03 89° S 23:51:34 10° E
Cosmos 1602 Rocket 3.6 23:40:47 32° S 23:42:50 79° E 23:47:21 10° NNE
Cosmos 1869 4.5 23:39:26 10° N 23:43:17 37° ENE 23:45:30 21° SE
Cosmos 1943 Rocket 2.1 23:38:57 10° NNW 23:44:30 87° ENE 23:48:02 23° SSE
SL-4 R/B 1.7 23:41:37 10° WSW 23:45:35 82° SSE 23:49:16 10° ENE
Cosmos 1441 Rocket 4.1 23:44:18 23° SW 23:46:18 41° WNW 23:49:56 10° N
Cosmos 1892 4.0 23:46:05 23° SE 23:47:32 31° E 23:50:58 10° NNE
Cosmos 1758 Rocket 3.8 23:48:38 30° SSE 23:50:35 58° E 23:54:55 10° NNE
NOSS 2-3 (C) 4.2 23:51:19 31° SSE 23:52:36 39° ESE 23:57:04 10° NE
Meteor 1-4 Rocket 3.3 23:50:31 10° NNW 23:53:46 38° W 23:54:41 31° SW
Lacrosse 5 rocket 3.4 23:51:12 10° WNW 23:54:17 26° N 23:57:23 10° NE
